COSMOS 1989 (ETALON 1)

Last updated on Sun Oct 06 2024 00:03:25 GMT+0000 (Coordinated Universal Time)

1 19751U 89001C 24279.21966525 .00000041 00000+0 00000+0 0 9994 2 19751 64.6057 93.4554 0023752 215.9263 290.9701 2.13156229278152
UTC large
Height (km)
Speed (km/s)
/
Latitude / Longitude
Inclination (degrees)
Orbital Period (minutes)
Azimuth
Elevation
Range (km)
Doppler Factor

Next 0 passes for location: London (51.5072 / 0.1276)

Sorry there are no passes over London.